Location: Bremen
(53.0796°N, 8.8241°E)
Time: 02:32:20
(UTC+01:00)

ISS - Pass Details

Date: 10 January 2018
Orbit: 402 x 407 km, 51.6° (Epoch: 18 January)

Event Time Altitude Azimuth Distance (km) Brightness Sun altitude
Exits shadow 06:31:22 38° 226° (SW) 644 -3.1 -17.5°
Maximum altitude 06:31:52 41° 201° (SSW) 607 -3.1 -17.4°
Drops below altitude 10° 06:34:59 10° 129° (SE) 1,466 0.0 -17.0°
Sets 06:37:07 0° 122° (ESE) 2,325 1.5 -16.7°
